{"data":{"norad_id":58227,"epoch":"2026-05-25T05:30:55.939968Z","epoch_age_seconds":65839,"freshness":"FRESH","line1":"1 58227U 23170X   26145.22981412 -.00001253  00000+0 -36008-4 0  9997","line2":"2 58227  43.0014 122.0959 0000950 263.6760  96.3983 15.27583237142008","mean_motion":15.27583237,"eccentricity":9.5e-5,"inclination_deg":43.0014,"raan_deg":122.0959,"arg_perigee_deg":263.676,"mean_anomaly_deg":96.3983,"bstar":-3.6008e-5,"rev_number":14200,"period_min":94.266548959256,"perigee_km":482.38759155595,"apogee_km":483.69121507258,"semimajor_km":6861.1764033143,"source":"CELESTRAK","updated_at":"2026-05-25T13:38:18.578587Z"}}